Time,TemperatureF,DewpointF,PressureIn,WindDirection,WindDirectionDegrees,WindSpeedMPH,WindSpeedGustMPH,Humidity,HourlyPrecipIn,Conditions,Clouds,dailyrainin,SoftwareType,DateUTC
2013-05-21 00:00:00,64.9,6.9,30.20,West,265,3.0,3.0,10,0.00,,,0.00,Wunderground v.1.15,2013-05-21 07:00:00,
2013-05-21 00:05:00,64.5,8.7,30.20,West,265,1.0,6.0,11,0.00,,,0.00,Wunderground v.1.15,2013-05-21 07:05:00,
2013-05-21 00:15:00,64.2,8.5,30.20,West,265,1.0,3.0,11,0.00,,,0.00,Wunderground v.1.15,2013-05-21 07:15:00,
2013-05-21 00:20:00,64.6,8.8,30.20,West,265,1.0,1.0,11,0.00,,,0.00,Wunderground v.1.15,2013-05-21 07:20:00,
2013-05-21 00:25:00,64.4,8.7,30.20,West,265,0.0,6.0,11,0.00,,,0.00,Wunderground v.1.15,2013-05-21 07:25:00,
2013-05-21 00:35:00,63.7,8.1,30.20,West,265,0.0,6.0,11,0.00,,,0.00,Wunderground v.1.15,2013-05-21 07:35:00,
2013-05-21 00:45:00,62.9,9.4,30.19,West,265,1.0,4.0,12,0.00,,,0.00,Wunderground v.1.15,2013-05-21 07:45:00,
2013-05-21 00:50:00,62.5,9.1,30.19,West,265,1.0,4.0,12,0.00,,,0.00,Wunderground v.1.15,2013-05-21 07:50:00,
2013-05-21 01:00:00,62.5,9.1,30.19,West,265,2.0,4.0,12,0.00,,,0.00,Wunderground v.1.15,2013-05-21 08:00:00,
2013-05-21 01:05:00,62.5,9.1,30.19,West,265,1.0,5.0,12,0.00,,,0.00,Wunderground v.1.15,2013-05-21 08:05:00,
2013-05-21 01:15:00,62.0,8.7,30.19,West,265,1.0,5.0,12,0.00,,,0.00,Wunderground v.1.15,2013-05-21 08:15:00,
2013-05-21 01:20:00,61.5,10.1,30.18,West,265,1.0,5.0,13,0.00,,,0.00,Wunderground v.1.15,2013-05-21 08:20:00,
2013-05-21 01:25:00,61.6,10.2,30.19,West,265,1.0,5.0,13,0.00,,,0.00,Wunderground v.1.15,2013-05-21 08:25:00,
2013-05-21 01:30:00,61.7,10.3,30.18,West,265,0.0,5.0,13,0.00,,,0.00,Wunderground v.1.15,2013-05-21 08:30:00,
2013-05-21 01:40:00,62.2,10.7,30.18,West,268,4.0,8.0,13,0.00,,,0.00,Wunderground v.1.15,2013-05-21 08:40:00,
2013-05-21 01:50:00,63.0,9.5,30.18,West,268,2.0,8.0,12,0.00,,,0.00,Wunderground v.1.15,2013-05-21 08:50:00,
2013-05-21 02:00:00,62.9,9.4,30.17,West,268,2.0,8.0,12,0.00,,,0.00,Wunderground v.1.15,2013-05-21 09:00:00,
2013-05-21 02:05:00,63.1,9.6,30.18,West,268,2.0,8.0,12,0.00,,,0.00,Wunderground v.1.15,2013-05-21 09:05:00,
2013-05-21 02:15:00,62.6,11.0,30.17,West,268,2.0,7.0,13,0.00,,,0.00,Wunderground v.1.15,2013-05-21 09:15:00,
2013-05-21 02:20:00,62.7,11.1,30.17,West,268,2.0,2.0,13,0.00,,,0.00,Wunderground v.1.15,2013-05-21 09:20:00,
2013-05-21 02:30:00,63.7,10.1,30.17,West,268,1.0,7.0,12,0.00,,,0.00,Wunderground v.1.15,2013-05-21 09:30:00,
2013-05-21 02:35:00,63.0,11.3,30.17,West,268,2.0,7.0,13,0.00,,,0.00,Wunderground v.1.15,2013-05-21 09:35:00,
2013-05-21 02:45:00,61.0,11.4,30.17,West,268,0.0,2.0,14,0.00,,,0.00,Wunderground v.1.15,2013-05-21 09:45:00,
2013-05-21 02:50:00,60.3,10.8,30.17,West,268,0.0,5.0,14,0.00,,,0.00,Wunderground v.1.15,2013-05-21 09:50:00,
2013-05-21 03:00:00,60.3,10.8,30.17,West,268,1.0,1.0,14,0.00,,,0.00,Wunderground v.1.15,2013-05-21 10:00:00,
2013-05-21 03:05:00,60.4,10.9,30.17,West,268,1.0,4.0,14,0.00,,,0.00,Wunderground v.1.15,2013-05-21 10:05:00,
2013-05-21 03:15:00,60.9,11.3,30.17,West,268,0.0,4.0,14,0.00,,,0.00,Wunderground v.1.15,2013-05-21 10:15:00,
2013-05-21 03:20:00,60.7,11.1,30.16,West,268,0.0,4.0,14,0.00,,,0.00,Wunderground v.1.15,2013-05-21 10:20:00,
2013-05-21 03:25:00,60.6,11.1,30.16,West,268,0.0,4.0,14,0.00,,,0.00,Wunderground v.1.15,2013-05-21 10:25:00,
2013-05-21 03:35:00,60.7,9.5,30.16,West,268,0.0,4.0,13,0.00,,,0.00,Wunderground v.1.15,2013-05-21 10:35:00,
2013-05-21 03:45:00,60.4,9.2,30.16,West,268,1.0,4.0,13,0.00,,,0.00,Wunderground v.1.15,2013-05-21 10:45:00,
2013-05-21 03:50:00,60.0,8.9,30.16,West,268,3.0,4.0,13,0.00,,,0.00,Wunderground v.1.15,2013-05-21 10:50:00,
2013-05-21 04:00:00,60.2,10.7,30.16,West,268,0.0,4.0,14,0.00,,,0.00,Wunderground v.1.15,2013-05-21 11:00:00,
2013-05-21 04:05:00,60.0,10.6,30.16,West,268,0.0,5.0,14,0.00,,,0.00,Wunderground v.1.15,2013-05-21 11:05:00,
2013-05-21 04:15:00,59.4,10.1,30.16,West,268,0.0,5.0,14,0.00,,,0.00,Wunderground v.1.15,2013-05-21 11:15:00,
2013-05-21 04:20:00,59.5,10.2,30.16,West,268,0.0,5.0,14,0.00,,,0.00,Wunderground v.1.15,2013-05-21 11:20:00,
2013-05-21 04:25:00,59.8,10.4,30.16,West,268,0.0,5.0,14,0.00,,,0.00,Wunderground v.1.15,2013-05-21 11:25:00,
2013-05-21 04:35:00,60.0,10.6,30.16,West,268,0.0,5.0,14,0.00,,,0.00,Wunderground v.1.15,2013-05-21 11:35:00,
2013-05-21 04:40:00,59.4,11.7,30.16,West,268,0.0,4.0,15,0.00,,,0.00,Wunderground v.1.15,2013-05-21 11:40:00,
2013-05-21 04:45:00,58.7,11.1,30.16,West,268,0.0,4.0,15,0.00,,,0.00,Wunderground v.1.15,2013-05-21 11:45:00,
2013-05-21 04:50:00,58.8,9.6,30.16,West,268,1.0,1.0,14,0.00,,,0.00,Wunderground v.1.15,2013-05-21 11:50:00,
2013-05-21 05:00:00,59.0,9.8,30.16,West,268,1.0,4.0,14,0.00,,,0.00,Wunderground v.1.15,2013-05-21 12:00:00,
2013-05-21 05:05:00,59.6,8.6,30.16,West,268,1.0,4.0,13,0.00,,,0.00,Wunderground v.1.15,2013-05-21 12:05:00,
2013-05-21 05:10:00,59.9,8.8,30.16,West,268,0.0,4.0,13,0.00,,,0.00,Wunderground v.1.15,2013-05-21 12:10:00,
2013-05-21 05:15:00,59.9,8.8,30.16,West,268,0.0,4.0,13,0.00,,,0.00,Wunderground v.1.15,2013-05-21 12:15:00,
2013-05-21 05:25:00,59.9,8.8,30.16,West,268,0.0,4.0,13,0.00,,,0.00,Wunderground v.1.15,2013-05-21 12:25:00,
2013-05-21 05:30:00,60.0,8.9,30.16,West,268,0.0,4.0,13,0.00,,,0.00,Wunderground v.1.15,2013-05-21 12:30:00,
2013-05-21 05:35:00,59.9,8.8,30.16,West,268,0.0,4.0,13,0.00,,,0.00,Wunderground v.1.15,2013-05-21 12:35:00,
2013-05-21 05:45:00,59.2,9.9,30.16,West,268,0.0,3.0,14,0.00,,,0.00,Wunderground v.1.15,2013-05-21 12:45:00,
2013-05-21 05:50:00,58.6,7.8,30.16,West,263,2.0,5.0,13,0.00,,,0.00,Wunderground v.1.15,2013-05-21 12:50:00,
2013-05-21 06:00:00,59.5,8.5,30.17,West,266,5.0,5.0,13,0.00,,,0.00,Wunderground v.1.15,2013-05-21 13:00:00,
2013-05-21 06:05:00,60.1,9.0,30.17,West,266,5.0,8.0,13,0.00,,,0.00,Wunderground v.1.15,2013-05-21 13:05:00,
2013-05-21 06:10:00,61.3,10.0,30.17,West,266,4.0,8.0,13,0.00,,,0.00,Wunderground v.1.15,2013-05-21 13:10:00,
2013-05-21 06:15:00,61.9,8.6,30.17,West,264,4.0,8.0,12,0.00,,,0.00,Wunderground v.1.15,2013-05-21 13:15:00,
2013-05-21 06:20:00,62.5,9.1,30.17,West,264,4.0,8.0,12,0.00,,,0.00,Wunderground v.1.15,2013-05-21 13:20:00,
2013-05-21 06:30:00,63.7,10.1,30.17,West,262,3.0,3.0,12,0.00,,,0.00,Wunderground v.1.15,2013-05-21 13:30:00,
2013-05-21 06:35:00,63.9,10.2,30.17,West,262,2.0,7.0,12,0.00,,,0.00,Wunderground v.1.15,2013-05-21 13:35:00,
2013-05-21 06:45:00,65.7,11.6,30.17,West,262,1.0,4.0,12,0.00,,,0.00,Wunderground v.1.15,2013-05-21 13:45:00,
2013-05-21 06:50:00,66.6,12.3,30.17,West,262,1.0,1.0,12,0.00,,,0.00,Wunderground v.1.15,2013-05-21 13:50:00,
2013-05-21 06:55:00,67.3,12.9,30.17,West,262,0.0,7.0,12,0.00,,,0.00,Wunderground v.1.15,2013-05-21 13:55:00,
2013-05-21 07:00:00,67.9,13.3,30.17,West,262,0.0,7.0,12,0.00,,,0.00,Wunderground v.1.15,2013-05-21 14:00:00,
2013-05-21 07:10:00,68.5,15.7,30.18,West,262,0.0,5.0,13,0.00,,,0.00,Wunderground v.1.15,2013-05-21 14:10:00,
2013-05-21 07:15:00,68.6,15.7,30.18,West,262,0.0,5.0,13,0.00,,,0.00,Wunderground v.1.15,2013-05-21 14:15:00,
2013-05-21 07:20:00,68.9,16.0,30.17,West,262,0.0,5.0,13,0.00,,,0.00,Wunderground v.1.15,2013-05-21 14:20:00,
2013-05-21 07:30:00,69.5,14.6,30.17,West,262,0.0,5.0,12,0.00,,,0.00,Wunderground v.1.15,2013-05-21 14:30:00,
2013-05-21 07:35:00,70.4,15.3,30.17,West,262,0.0,5.0,12,0.00,,,0.00,Wunderground v.1.15,2013-05-21 14:35:00,
2013-05-21 07:45:00,71.9,14.5,30.17,West,262,0.0,0.0,11,0.00,,,0.00,Wunderground v.1.15,2013-05-21 14:45:00,
2013-05-21 07:50:00,73.6,15.8,30.17,West,262,0.0,0.0,11,0.00,,,0.00,Wunderground v.1.15,2013-05-21 14:50:00,
2013-05-21 08:00:00,74.3,14.1,30.17,West,262,0.0,0.0,10,0.00,,,0.00,Wunderground v.1.15,2013-05-21 15:00:00,
2013-05-21 08:05:00,74.6,14.4,30.17,West,262,0.0,1.0,10,0.00,,,0.00,Wunderground v.1.15,2013-05-21 15:05:00,
2013-05-21 08:15:00,75.1,20.9,30.17,West,278,0.0,1.0,13,0.00,,,0.00,Wunderground v.1.15,2013-05-21 15:15:00,
2013-05-21 08:20:00,75.4,19.2,30.17,WNW,293,0.0,1.0,12,0.00,,,0.00,Wunderground v.1.15,2013-05-21 15:20:00,
2013-05-21 08:30:00,76.1,26.6,30.17,NNW,341,0.0,4.0,16,0.00,,,0.00,Wunderground v.1.15,2013-05-21 15:30:00,
2013-05-21 08:35:00,76.2,26.7,30.17,North,360,3.0,7.0,16,0.00,,,0.00,Wunderground v.1.15,2013-05-21 15:35:00,
2013-05-21 08:45:00,76.4,26.9,30.18,NNW,343,5.0,7.0,16,0.00,,,0.00,Wunderground v.1.15,2013-05-21 15:45:00,
2013-05-21 08:50:00,76.9,24.0,30.17,NW,306,5.0,5.0,14,0.00,,,0.00,Wunderground v.1.15,2013-05-21 15:50:00,
2013-05-21 08:55:00,77.0,24.1,30.17,NW,325,5.0,7.0,14,0.00,,,0.00,Wunderground v.1.15,2013-05-21 15:55:00,
2013-05-21 09:00:00,77.3,24.4,30.18,NW,307,5.0,7.0,14,0.00,,,0.00,Wunderground v.1.15,2013-05-21 16:00:00,
2013-05-21 09:10:00,77.9,19.1,30.17,NNW,333,4.0,11.0,11,0.00,,,0.00,Wunderground v.1.15,2013-05-21 16:10:00,
2013-05-21 09:15:00,77.8,21.1,30.17,NNW,327,5.0,11.0,12,0.00,,,0.00,Wunderground v.1.15,2013-05-21 16:15:00,
2013-05-21 09:20:00,78.1,23.2,30.17,NW,319,6.0,11.0,13,0.00,,,0.00,Wunderground v.1.15,2013-05-21 16:20:00,
2013-05-21 09:30:00,78.4,19.5,30.17,NW,318,7.0,11.0,11,0.00,,,0.00,Wunderground v.1.15,2013-05-21 16:30:00,
2013-05-21 09:35:00,78.4,23.5,30.17,NNW,331,7.0,13.0,13,0.00,,,0.00,Wunderground v.1.15,2013-05-21 16:35:00,
2013-05-21 09:45:00,78.2,21.4,30.17,NNW,333,7.0,15.0,12,0.00,,,0.00,Wunderground v.1.15,2013-05-21 16:45:00,
2013-05-21 09:50:00,78.7,19.7,30.16,NNW,347,7.0,7.0,11,0.00,,,0.00,Wunderground v.1.15,2013-05-21 16:50:00,
2013-05-21 10:00:00,79.2,20.1,30.16,NNW,329,5.0,15.0,11,0.00,,,0.00,Wunderground v.1.15,2013-05-21 17:00:00,
2013-05-21 10:10:00,79.5,20.3,30.17,NW,309,6.0,15.0,11,0.00,,,0.00,Wunderground v.1.15,2013-05-21 17:10:00,
2013-05-21 10:15:00,79.3,22.2,30.17,WNW,287,7.0,15.0,12,0.00,,,0.00,Wunderground v.1.15,2013-05-21 17:15:00,
2013-05-21 10:20:00,79.7,22.6,30.16,NW,309,7.0,7.0,12,0.00,,,0.00,Wunderground v.1.15,2013-05-21 17:20:00,
2013-05-21 10:30:00,80.7,23.3,30.16,NW,307,5.0,15.0,12,0.00,,,0.00,Wunderground v.1.15,2013-05-21 17:30:00,
2013-05-21 10:35:00,80.0,22.8,30.16,NW,306,7.0,16.0,12,0.00,,,0.00,Wunderground v.1.15,2013-05-21 17:35:00,
2013-05-21 10:40:00,79.8,22.6,30.16,NNW,337,8.0,16.0,12,0.00,,,0.00,Wunderground v.1.15,2013-05-21 17:40:00,
2013-05-21 10:50:00,80.7,21.3,30.16,WNW,287,8.0,8.0,11,0.00,,,0.00,Wunderground v.1.15,2013-05-21 17:50:00,
2013-05-21 10:55:00,80.8,23.4,30.16,NW,306,8.0,15.0,12,0.00,,,0.00,Wunderground v.1.15,2013-05-21 17:55:00,
2013-05-21 11:00:00,80.4,23.1,30.16,NNW,338,9.0,9.0,12,0.00,,,0.00,Wunderground v.1.15,2013-05-21 18:00:00,
2013-05-21 11:05:00,80.4,23.1,30.15,WNW,298,9.0,10.0,12,0.00,,,0.00,Wunderground v.1.15,2013-05-21 18:05:00,
2013-05-21 11:15:00,80.4,23.1,30.15,West,281,9.0,12.0,12,0.00,,,0.00,Wunderground v.1.15,2013-05-21 18:15:00,
2013-05-21 11:20:00,81.0,23.6,30.15,WNW,303,8.0,19.0,12,0.00,,,0.00,Wunderground v.1.15,2013-05-21 18:20:00,
2013-05-21 11:30:00,81.0,23.6,30.14,NNW,329,10.0,19.0,12,0.00,,,0.00,Wunderground v.1.15,2013-05-21 18:30:00,
2013-05-21 11:35:00,80.9,23.5,30.14,NW,315,10.0,21.0,12,0.00,,,0.00,Wunderground v.1.15,2013-05-21 18:35:00,
2013-05-21 11:45:00,80.9,21.4,30.14,WNW,285,11.0,21.0,11,0.00,,,0.00,Wunderground v.1.15,2013-05-21 18:45:00,
2013-05-21 11:50:00,80.9,21.4,30.14,NNW,339,12.0,12.0,11,0.00,,,0.00,Wunderground v.1.15,2013-05-21 18:50:00,
2013-05-21 11:55:00,81.3,21.7,30.14,WNW,291,12.0,21.0,11,0.00,,,0.00,Wunderground v.1.15,2013-05-21 18:55:00,
2013-05-21 12:00:00,81.6,22.0,30.14,WNW,302,11.0,21.0,11,0.00,,,0.00,Wunderground v.1.15,2013-05-21 19:00:00,
2013-05-21 12:10:00,81.6,22.0,30.13,WNW,298,11.0,11.0,11,0.00,,,0.00,Wunderground v.1.15,2013-05-21 19:10:00,
2013-05-21 12:20:00,82.2,20.2,30.13,NNW,343,10.0,10.0,10,0.00,,,0.00,Wunderground v.1.15,2013-05-21 19:20:00,
2013-05-21 12:30:00,82.6,22.7,30.13,WNW,286,9.0,9.0,11,0.00,,,0.00,Wunderground v.1.15,2013-05-21 19:30:00,
2013-05-21 12:35:00,82.7,22.8,30.12,NNW,337,9.0,15.0,11,0.00,,,0.00,Wunderground v.1.15,2013-05-21 19:35:00,
2013-05-21 12:45:00,83.0,25.1,30.12,WNW,300,11.0,11.0,12,0.00,,,0.00,Wunderground v.1.15,2013-05-21 19:45:00,
2013-05-21 12:50:00,83.0,25.1,30.11,NNW,341,13.0,21.0,12,0.00,,,0.00,Wunderground v.1.15,2013-05-21 19:50:00,
2013-05-21 13:00:00,83.0,25.1,30.11,NW,312,12.0,21.0,12,0.00,,,0.00,Wunderground v.1.15,2013-05-21 20:00:00,
2013-05-21 13:05:00,83.7,25.7,30.11,NNW,329,11.0,25.0,12,0.00,,,0.00,Wunderground v.1.15,2013-05-21 20:05:00,
2013-05-21 13:15:00,82.9,25.1,30.11,WNW,296,16.0,25.0,12,0.00,,,0.00,Wunderground v.1.15,2013-05-21 20:15:00,
2013-05-21 13:20:00,83.3,27.3,30.11,NW,316,15.0,15.0,13,0.00,,,0.00,Wunderground v.1.15,2013-05-21 20:20:00,
2013-05-21 13:30:00,83.4,27.4,30.11,WNW,302,14.0,25.0,13,0.00,,,0.00,Wunderground v.1.15,2013-05-21 20:30:00,
2013-05-21 13:35:00,83.2,25.3,30.10,NW,304,15.0,25.0,12,0.00,,,0.00,Wunderground v.1.15,2013-05-21 20:35:00,
2013-05-21 13:40:00,83.3,25.4,30.10,NW,326,15.0,15.0,12,0.00,,,0.00,Wunderground v.1.15,2013-05-21 20:40:00,
2013-05-21 13:50:00,83.4,27.4,30.10,NNW,335,15.0,15.0,13,0.00,,,0.00,Wunderground v.1.15,2013-05-21 20:50:00,
2013-05-21 13:55:00,83.8,27.7,30.09,WNW,296,14.0,25.0,13,0.00,,,0.00,Wunderground v.1.15,2013-05-21 20:55:00,
2013-05-21 14:00:00,83.5,27.5,30.09,NNW,339,13.0,25.0,13,0.00,,,0.00,Wunderground v.1.15,2013-05-21 21:00:00,
2013-05-21 14:05:00,83.6,27.5,30.09,NW,308,14.0,25.0,13,0.00,,,0.00,Wunderground v.1.15,2013-05-21 21:05:00,
2013-05-21 14:15:00,82.9,30.5,30.08,NW,321,16.0,25.0,15,0.00,,,0.00,Wunderground v.1.15,2013-05-21 21:15:00,
2013-05-21 14:20:00,83.6,29.3,30.08,North,2,14.0,14.0,14,0.00,,,0.00,Wunderground v.1.15,2013-05-21 21:20:00,
2013-05-21 14:30:00,83.3,30.8,30.08,North,350,14.0,25.0,15,0.00,,,0.00,Wunderground v.1.15,2013-05-21 21:30:00,
2013-05-21 14:35:00,83.5,31.0,30.08,NNW,330,15.0,30.0,15,0.00,,,0.00,Wunderground v.1.15,2013-05-21 21:35:00,
2013-05-21 14:45:00,83.1,30.6,30.07,NW,325,15.0,15.0,15,0.00,,,0.00,Wunderground v.1.15,2013-05-21 21:45:00,
2013-05-21 14:50:00,83.8,32.8,30.07,WNW,291,14.0,14.0,16,0.00,,,0.00,Wunderground v.1.15,2013-05-21 21:50:00,
2013-05-21 14:55:00,83.4,30.9,30.07,WNW,296,14.0,16.0,15,0.00,,,0.00,Wunderground v.1.15,2013-05-21 21:55:00,
2013-05-21 15:00:00,83.7,31.1,30.07,NW,308,15.0,30.0,15,0.00,,,0.00,Wunderground v.1.15,2013-05-21 22:00:00,
2013-05-21 15:05:00,83.9,31.3,30.06,NW,319,15.0,30.0,15,0.00,,,0.00,Wunderground v.1.15,2013-05-21 22:05:00,
2013-05-21 15:15:00,83.2,32.3,30.06,WNW,291,17.0,30.0,16,0.00,,,0.00,Wunderground v.1.15,2013-05-21 22:15:00,
2013-05-21 15:20:00,83.4,34.0,30.05,WNW,285,17.0,17.0,17,0.00,,,0.00,Wunderground v.1.15,2013-05-21 22:20:00,
2013-05-21 15:25:00,83.2,35.3,30.05,NNW,329,16.0,21.0,18,0.00,,,0.00,Wunderground v.1.15,2013-05-21 22:25:00,
2013-05-21 15:35:00,83.0,35.1,30.05,NW,322,18.0,30.0,18,0.00,,,0.00,Wunderground v.1.15,2013-05-21 22:35:00,
2013-05-21 15:40:00,83.6,35.6,30.05,NW,315,15.0,30.0,18,0.00,,,0.00,Wunderground v.1.15,2013-05-21 22:40:00,
2013-05-21 15:45:00,83.2,35.3,30.05,North,357,15.0,30.0,18,0.00,,,0.00,Wunderground v.1.15,2013-05-21 22:45:00,
2013-05-21 15:55:00,83.7,37.0,30.04,WNW,293,14.0,17.0,19,0.00,,,0.00,Wunderground v.1.15,2013-05-21 22:55:00,
2013-05-21 16:00:00,83.3,36.7,30.04,West,281,13.0,30.0,19,0.00,,,0.00,Wunderground v.1.15,2013-05-21 23:00:00,
2013-05-21 16:05:00,83.2,35.3,30.04,NW,315,14.0,30.0,18,0.00,,,0.00,Wunderground v.1.15,2013-05-21 23:05:00,
2013-05-21 16:15:00,83.3,36.7,30.03,NNW,327,14.0,30.0,19,0.00,,,0.00,Wunderground v.1.15,2013-05-21 23:15:00,
2013-05-21 16:20:00,82.8,36.3,30.03,WNW,289,14.0,14.0,19,0.00,,,0.00,Wunderground v.1.15,2013-05-21 23:20:00,
2013-05-21 16:30:00,82.6,36.1,30.02,WNW,301,14.0,30.0,19,0.00,,,0.00,Wunderground v.1.15,2013-05-21 23:30:00,
2013-05-21 16:35:00,82.2,35.8,30.02,NW,321,13.0,31.0,19,0.00,,,0.00,Wunderground v.1.15,2013-05-21 23:35:00,
2013-05-21 16:40:00,82.2,37.1,30.02,NW,312,14.0,14.0,20,0.00,,,0.00,Wunderground v.1.15,2013-05-21 23:40:00,
2013-05-21 16:45:00,81.6,37.9,30.02,WNW,301,15.0,15.0,21,0.00,,,0.00,Wunderground v.1.15,2013-05-21 23:45:00,
2013-05-21 16:50:00,82.3,37.2,30.02,NNW,340,15.0,15.0,20,0.00,,,0.00,Wunderground v.1.15,2013-05-21 23:50:00,
2013-05-21 17:00:00,82.5,38.6,30.01,NW,308,13.0,31.0,21,0.00,,,0.00,Wunderground v.1.15,2013-05-22 00:00:00,
2013-05-21 17:05:00,82.4,38.5,30.02,NW,325,12.0,31.0,21,0.00,,,0.00,Wunderground v.1.15,2013-05-22 00:05:00,
2013-05-21 17:15:00,81.8,38.0,30.01,NW,312,13.0,25.0,21,0.00,,,0.00,Wunderground v.1.15,2013-05-22 00:15:00,
2013-05-21 17:20:00,81.8,38.0,30.01,WNW,298,12.0,12.0,21,0.00,,,0.00,Wunderground v.1.15,2013-05-22 00:20:00,
2013-05-21 17:30:00,81.1,38.6,30.00,NW,317,14.0,14.0,22,0.00,,,0.00,Wunderground v.1.15,2013-05-22 00:30:00,
2013-05-21 17:35:00,80.8,38.4,30.00,NW,323,12.0,25.0,22,0.00,,,0.00,Wunderground v.1.15,2013-05-22 00:35:00,
2013-05-21 17:40:00,80.4,38.1,30.00,NNW,348,13.0,13.0,22,0.00,,,0.00,Wunderground v.1.15,2013-05-22 00:40:00,
2013-05-21 17:50:00,80.1,37.8,30.00,NW,306,11.0,11.0,22,0.00,,,0.00,Wunderground v.1.15,2013-05-22 00:50:00,
2013-05-21 17:55:00,80.0,38.9,30.00,NNW,333,11.0,25.0,23,0.00,,,0.00,Wunderground v.1.15,2013-05-22 00:55:00,
2013-05-21 18:00:00,79.4,38.4,30.00,NNW,339,11.0,25.0,23,0.00,,,0.00,Wunderground v.1.15,2013-05-22 01:00:00,
2013-05-21 18:05:00,79.2,38.2,29.99,NW,319,13.0,26.0,23,0.00,,,0.00,Wunderground v.1.15,2013-05-22 01:05:00,
2013-05-21 18:15:00,79.0,39.1,30.00,WNW,282,10.0,26.0,24,0.00,,,0.00,Wunderground v.1.15,2013-05-22 01:15:00,
2013-05-21 18:20:00,78.9,39.0,29.99,NNW,339,13.0,26.0,24,0.00,,,0.00,Wunderground v.1.15,2013-05-22 01:20:00,
2013-05-21 18:30:00,79.1,40.2,30.00,WNW,302,13.0,26.0,25,0.00,,,0.00,Wunderground v.1.15,2013-05-22 01:30:00,
2013-05-21 18:35:00,79.0,40.2,29.99,NNW,339,14.0,26.0,25,0.00,,,0.00,Wunderground v.1.15,2013-05-22 01:35:00,
2013-05-21 18:40:00,78.8,40.0,29.99,NW,325,13.0,13.0,25,0.00,,,0.00,Wunderground v.1.15,2013-05-22 01:40:00,
2013-05-21 18:45:00,78.5,39.7,29.99,NW,312,13.0,22.0,25,0.00,,,0.00,Wunderground v.1.15,2013-05-22 01:45:00,
2013-05-21 18:50:00,78.2,40.5,29.99,NNW,335,13.0,24.0,26,0.00,,,0.00,Wunderground v.1.15,2013-05-22 01:50:00,
2013-05-21 19:00:00,77.5,39.9,29.99,NW,321,12.0,24.0,26,0.00,,,0.00,Wunderground v.1.15,2013-05-22 02:00:00,
2013-05-21 19:05:00,77.1,40.5,30.00,North,355,13.0,24.0,27,0.00,,,0.00,Wunderground v.1.15,2013-05-22 02:05:00,
2013-05-21 19:15:00,76.6,40.1,30.00,NNW,348,13.0,23.0,27,0.00,,,0.00,Wunderground v.1.15,2013-05-22 02:15:00,
2013-05-21 19:20:00,76.1,40.6,30.00,NNW,334,13.0,23.0,28,0.00,,,0.00,Wunderground v.1.15,2013-05-22 02:20:00,
2013-05-21 19:25:00,75.8,40.4,30.00,NNW,331,13.0,23.0,28,0.00,,,0.00,Wunderground v.1.15,2013-05-22 02:25:00,
2013-05-21 19:30:00,75.4,40.9,30.00,NW,321,13.0,13.0,29,0.00,,,0.00,Wunderground v.1.15,2013-05-22 02:30:00,
2013-05-21 19:40:00,74.7,40.3,30.00,NNW,329,13.0,13.0,29,0.00,,,0.00,Wunderground v.1.15,2013-05-22 02:40:00,
2013-05-21 19:45:00,74.4,40.1,30.00,NW,316,10.0,23.0,29,0.00,,,0.00,Wunderground v.1.15,2013-05-22 02:45:00,
2013-05-21 19:50:00,74.2,40.8,30.00,North,4,10.0,23.0,30,0.00,,,0.00,Wunderground v.1.15,2013-05-22 02:50:00,
2013-05-21 20:00:00,73.8,40.4,30.00,NNW,327,13.0,13.0,30,0.00,,,0.00,Wunderground v.1.15,2013-05-22 03:00:00,
2013-05-21 20:05:00,73.5,40.2,30.00,NNW,341,11.0,22.0,30,0.00,,,0.00,Wunderground v.1.15,2013-05-22 03:05:00,
2013-05-21 20:10:00,73.4,40.9,30.00,North,354,10.0,10.0,31,0.00,,,0.00,Wunderground v.1.15,2013-05-22 03:10:00,
2013-05-21 20:20:00,73.0,40.6,30.01,NW,323,8.0,8.0,31,0.00,,,0.00,Wunderground v.1.15,2013-05-22 03:20:00,
2013-05-21 20:30:00,72.7,39.5,30.00,North,2,12.0,22.0,30,0.00,,,0.00,Wunderground v.1.15,2013-05-22 03:30:00,
2013-05-21 20:35:00,72.6,39.4,30.00,NNW,329,13.0,24.0,30,0.00,,,0.00,Wunderground v.1.15,2013-05-22 03:35:00,
2013-05-21 20:45:00,72.4,39.2,30.00,NNW,328,13.0,24.0,30,0.00,,,0.00,Wunderground v.1.15,2013-05-22 03:45:00,
2013-05-21 20:50:00,72.3,39.1,30.00,NNW,341,13.0,24.0,30,0.00,,,0.00,Wunderground v.1.15,2013-05-22 03:50:00,
2013-05-21 21:00:00,72.0,38.9,30.00,NW,310,10.0,10.0,30,0.00,,,0.00,Wunderground v.1.15,2013-05-22 04:00:00,
2013-05-21 21:05:00,72.0,38.9,30.00,WNW,285,10.0,22.0,30,0.00,,,0.00,Wunderground v.1.15,2013-05-22 04:05:00,
2013-05-21 21:15:00,71.9,38.8,30.00,NNW,343,12.0,22.0,30,0.00,,,0.00,Wunderground v.1.15,2013-05-22 04:15:00,
2013-05-21 21:20:00,71.9,37.9,30.00,WNW,299,13.0,13.0,29,0.00,,,0.00,Wunderground v.1.15,2013-05-22 04:20:00,
2013-05-21 21:25:00,71.8,37.8,30.01,WNW,290,12.0,22.0,29,0.00,,,0.00,Wunderground v.1.15,2013-05-22 04:25:00,
2013-05-21 21:30:00,71.9,37.9,30.01,NNW,328,11.0,22.0,29,0.00,,,0.00,Wunderground v.1.15,2013-05-22 04:30:00,
2013-05-21 21:35:00,71.8,37.8,30.01,NW,323,11.0,24.0,29,0.00,,,0.00,Wunderground v.1.15,2013-05-22 04:35:00,
2013-05-21 21:40:00,71.7,37.7,30.01,NNW,331,11.0,11.0,29,0.00,,,0.00,Wunderground v.1.15,2013-05-22 04:40:00,
2013-05-21 21:45:00,71.5,37.6,30.01,NW,316,10.0,24.0,29,0.00,,,0.00,Wunderground v.1.15,2013-05-22 04:45:00,
2013-05-21 21:55:00,71.1,37.2,30.02,North,352,6.0,24.0,29,0.00,,,0.00,Wunderground v.1.15,2013-05-22 04:55:00,
2013-05-21 22:00:00,71.2,37.3,30.01,North,356,6.0,24.0,29,0.00,,,0.00,Wunderground v.1.15,2013-05-22 05:00:00,
2013-05-21 22:05:00,71.1,36.3,30.01,NNE,14,7.0,24.0,28,0.00,,,0.00,Wunderground v.1.15,2013-05-22 05:05:00,
2013-05-21 22:10:00,70.9,36.1,30.01,NNW,343,4.0,4.0,28,0.00,,,0.00,Wunderground v.1.15,2013-05-22 05:10:00,
2013-05-21 22:15:00,71.0,36.2,30.00,NNW,335,4.0,5.0,28,0.00,,,0.00,Wunderground v.1.15,2013-05-22 05:15:00,
2013-05-21 22:25:00,71.5,34.8,30.00,North,1,12.0,22.0,26,0.00,,,0.00,Wunderground v.1.15,2013-05-22 05:25:00,
2013-05-21 22:30:00,71.5,34.8,30.00,NW,326,11.0,11.0,26,0.00,,,0.00,Wunderground v.1.15,2013-05-22 05:30:00,
2013-05-21 22:35:00,71.4,33.7,30.01,WNW,302,8.0,21.0,25,0.00,,,0.00,Wunderground v.1.15,2013-05-22 05:35:00,
2013-05-21 22:45:00,71.4,33.7,30.01,NNE,16,6.0,21.0,25,0.00,,,0.00,Wunderground v.1.15,2013-05-22 05:45:00,
2013-05-21 22:50:00,71.3,33.6,30.01,North,4,5.0,5.0,25,0.00,,,0.00,Wunderground v.1.15,2013-05-22 05:50:00,
2013-05-21 23:00:00,71.1,33.5,30.01,North,2,2.0,2.0,25,0.00,,,0.00,Wunderground v.1.15,2013-05-22 06:00:00,
2013-05-21 23:05:00,71.0,33.4,30.01,North,354,2.0,6.0,25,0.00,,,0.00,Wunderground v.1.15,2013-05-22 06:05:00,
2013-05-21 23:10:00,71.2,33.6,30.01,NW,317,4.0,4.0,25,0.00,,,0.00,Wunderground v.1.15,2013-05-22 06:10:00,
2013-05-21 23:20:00,71.1,33.5,30.00,NNW,348,2.0,2.0,25,0.00,,,0.00,Wunderground v.1.15,2013-05-22 06:20:00,
2013-05-21 23:30:00,70.8,32.2,30.00,NW,310,2.0,16.0,24,0.00,,,0.00,Wunderground v.1.15,2013-05-22 06:30:00,
2013-05-21 23:35:00,71.0,31.3,30.00,NW,313,7.0,17.0,23,0.00,,,0.00,Wunderground v.1.15,2013-05-22 06:35:00,
2013-05-21 23:45:00,70.9,30.1,30.00,NNW,331,7.0,17.0,22,0.00,,,0.00,Wunderground v.1.15,2013-05-22 06:45:00,
2013-05-21 23:50:00,71.1,30.3,29.99,NNW,337,8.0,17.0,22,0.00,,,0.00,Wunderground v.1.15,2013-05-22 06:50:00,